Volver al catálogo

COSMOS 1823 DEB

ActivoLEO
NORAD 18804·DEBRIS·🇷🇺 Russia

Lanzado Feb 20, 1987 desde Plesetsk Cosmodrome

Loading…

Próximos Pases (próximas 24 horas)

TLE

ActualizadoSource: Space-Track

Época: Sep 14, 2026, 02:17 UTC

1 18804U 87020AQ  26257.09534848 -.00000016  00000-0  83026-5 0  9993
2 18804  73.6010 279.7147 0026420 113.0934 276.6813 12.41509825754930

Sigue COSMOS 1823 DEB en tiempo real con AllMySat

Download on the App Store